Regional Weather Roundup
Issued by NWS

Home | Current Version | Previous Version | Text Only | Print | Product List | Glossary Off
Versions: 1 2 3 4 5 6 7 8 9 10 11 12 13 14 15 16 17 18 19 20 21 22 23 24 25 26 27 28 29 30 31 32 33 34 35 36 37 38 39 40 41 42 43 44 45 46 47 48 49 50

000
ASUS43 KLSX 221907
RWRMO

WEATHER SUMMARY FOR MISSOURI
NATIONAL WEATHER SERVICE SPRINGFIELD MO
200 PM CDT WED OCT 22 2014

NOTE: "FAIR" INDICATES FEW OR NO CLOUDS BELOW 12,000 FEET WITH NO
       SIGNIFICANT WEATHER AND/OR OBSTRUCTIONS TO VISIBILITY.
       CURRENT SKY AND/OR WEATHER CONDITIONS ARE NOT AVAILABLE FOR
       CHILLICOTHE AND FARMINGTON.

MOZ001>031-035>038-043-044-053-054-222000-
...NORTHERN AND WESTERN MISSOURI...

CITY           SKY/WX    TMP DP  RH WIND       PRES   REMARKS
KANSAS CTY INT MOSUNNY   70  55  59 SE15      30.13F
KANSAS C DTWN  SUNNY     71  52  50 SE7       30.13F
LEE`S SUMMIT   SUNNY     69  52  54 SE10      30.15F
ST JOSEPH      SUNNY     71  53  52 SE10      30.12F
CHILLICOTHE      N/A     66  48  52 VRB6G16   30.19F
KIRKSVILLE     SUNNY     62  47  57 SE13      30.23F

$$
MOZ066>068-077>081-088>096-101>105-222000-
...SOUTHWEST MISSOURI...

CITY           SKY/WX    TMP DP  RH WIND       PRES   REMARKS
SPRINGFIELD    SUNNY     68  48  48 SE6       30.19F
JOPLIN         PTSUNNY   71  57  61 S3        30.15F

$$
MOZ032>034-039>042-045>050-055>058-069>072-222000-
...CENTRAL MISSOURI...

CITY           SKY/WX    TMP DP  RH WIND       PRES   REMARKS
COLUMBIA       SUNNY     64  46  52 VRB6      30.23F
JEFFERSON CITY SUNNY     65  42  43 E6        30.22F
ROLLA          SUNNY     62  43  49 E6        30.22F
SEDALIA        SUNNY     70  49  47 SE9       30.20F
WHITEMAN AFB   SUNNY     69  49  49 SE9       30.17F
OSAGE BEACH    SUNNY     66  45  45 E6        30.22F

$$
MOZ051-052-059>065-222000-
...EAST CENTRAL MISSOURI...

CITY           SKY/WX    TMP DP  RH WIND       PRES   REMARKS
ST LOUIS INTL  SUNNY     61  43  51 SE5       30.28F
SPIRIT OF STL  SUNNY     61  43  51 E6        30.26F
ST CHARLES     SUNNY     61  44  53 E6        30.27F

$$
MOZ072>076-082>087-097>100-106>115-222000-
...SOUTH CENTRAL AND SOUTHEAST MISSOURI...

CITY           SKY/WX    TMP DP  RH WIND       PRES   REMARKS
CAPE GIRARDEAU SUNNY     63  43  48 N6        30.25F
FARMINGTON     SUNNY     61  45  55 NE3       30.27F
POPLAR BLUFF   SUNNY     64  40  41 VRB6      30.24F
WEST PLAINS    SUNNY     63  45  51 VRB6      30.23F

$$



USA.gov is the U.S. government's official web portal to all federal, state and local government web resources and services.